Location: Lugrin
(46.4033°N, 6.6674°E)
Time: 17:15:04
(UTC+00:00)

Ariane Rocket - Pass Details

Date: 18 September 2020
Orbit: 760 x 770 km, 98.7° (Epoch: 30 October)

Event Time Altitude Azimuth Distance (km) Brightness Sun altitude
Exits shadow 19:49:57 12° 191° (S) 2,182 5.2 -22.6°
Maximum altitude 19:54:26 43° 261° (W) 1,070 4.0 -23.3°
Drops below altitude 10° 19:59:17 10° 333° (NNW) 2,313 6.2 -24.0°
Sets 20:01:43 0° 340° (NNW) 3,246 7.0 -24.3°
